When you browse on this site, cookies collect data to enhance your experience and personalize the content and advertising you see.
Visit our Privacy Policy to learn more. By continuing to use the site, you agree to this use of cookies and data.
  • en France
  • Liste des pays
  • À 7 jours
  • Température de l'eau
  • Carte satellitaire
  • Carte météo
  • Widgets météo
  • user-avatar
    Se connecter

    Météo par heure à Lubango

    Ce jour, 23 Janvier, Mercredi

    Heure Température Précipitation Vent Pression Humidité
    00:00 +16°C° 0.3 mm 1 m/s 608 mmHg 86%
    01:00 +16°C° 0.3 mm 1 m/s 608 mmHg 86%
    02:00 +16°C° 0.1 mm 1 m/s 608 mmHg 86%
    03:00 +15°C° 0.1 mm 1 m/s 608 mmHg 87%
    04:00 +15°C° 0.1 mm 1 m/s 608 mmHg 87%
    05:00 +15°C° 2.2 mm 1 m/s 608 mmHg 89%
    06:00 +15°C° 2.2 mm 1 m/s 608 mmHg 91%
    07:00 +15°C° 2.2 mm 2 m/s 609 mmHg 93%
    08:00 +16°C° 1.5 mm 1 m/s 609 mmHg 89%
    09:00 +18°C° 1.5 mm 1 m/s 609 mmHg 85%
    10:00 +17°C° 1.5 mm 0 m/s 609 mmHg 81%
    11:00 +21°C° 0.2 mm 1 m/s 610 mmHg 73%
    12:00 +22°C° 0.2 mm 1 m/s 610 mmHg 64%
    13:00 +24°C° 0.2 mm 2 m/s 610 mmHg 56%
    14:00 +24°C° 0.5 mm 2 m/s 610 mmHg 59%
    15:00 +23°C° 0.5 mm 2 m/s 609 mmHg 62%
    16:00 +23°C° 0.5 mm 2 m/s 608 mmHg 65%
    17:00 +20°C° 0.1 mm 2 m/s 608 mmHg 71%
    18:00 +19°C° 0.1 mm 2 m/s 608 mmHg 77%
    19:00 +18°C° 0.1 mm 2 m/s 607 mmHg 84%
    20:00 +18°C° 0 mm 1 m/s 607 mmHg 85%
    21:00 +16°C° 0 mm 1 m/s 608 mmHg 87%
    22:00 +16°C° 0 mm 1 m/s 608 mmHg 89%
    23:00 +16°C° 0 mm 1 m/s 608 mmHg 89%

    Demain, 24 Janvier, Jeudi

    Heure Température Précipitation Vent Pression Humidité
    00:00 +15°C° 0 mm 1 m/s 608 mmHg 89%
    01:00 +15°C° 0 mm 1 m/s 607 mmHg 89%
    02:00 +15°C° 0 mm 1 m/s 607 mmHg 88%
    03:00 +15°C° 0 mm 1 m/s 607 mmHg 87%
    04:00 +15°C° 0 mm 1 m/s 606 mmHg 86%
    05:00 +15°C° 0 mm 0 m/s 607 mmHg 83%
    06:00 +15°C° 0 mm 0 m/s 608 mmHg 81%
    07:00 +16°C° 0 mm 0 m/s 608 mmHg 78%
    08:00 +20°C° 0 mm 1 m/s 609 mmHg 67%
    09:00 +23°C° 0 mm 1 m/s 610 mmHg 57%
    10:00 +26°C° 0 mm 1 m/s 611 mmHg 46%
    11:00 +27°C° 0 mm 1 m/s 611 mmHg 42%
    12:00 +28°C° 0 mm 2 m/s 611 mmHg 39%
    13:00 +29°C° 0 mm 2 m/s 611 mmHg 35%
    14:00 +27°C° 0 mm 2 m/s 609 mmHg 40%
    15:00 +26°C° 0 mm 2 m/s 608 mmHg 45%
    16:00 +25°C° 0 mm 2 m/s 607 mmHg 50%
    17:00 +23°C° 0 mm 2 m/s 607 mmHg 54%
    18:00 +22°C° 0 mm 1 m/s 607 mmHg 59%
    19:00 +20°C° 0 mm 1 m/s 607 mmHg 63%
    20:00 +20°C° 0 mm 1 m/s 607 mmHg 66%
    21:00 +19°C° 0 mm 1 m/s 607 mmHg 69%
    22:00 +16°C° 0 mm 0 m/s 607 mmHg 72%
    23:00 +16°C° 0 mm 0 m/s 607 mmHg 74%

    Après-demain, 25 Janvier, Vendredi

    Heure Température Précipitation Vent Pression Humidité
    00:00 +16°C° 0 mm 1 m/s 607 mmHg 77%
    01:00 +16°C° 0 mm 1 m/s 607 mmHg 79%
    02:00 +16°C° 0 mm 1 m/s 606 mmHg 79%
    03:00 +16°C° 0 mm 1 m/s 606 mmHg 79%
    04:00 +16°C° 0 mm 1 m/s 606 mmHg 80%
    05:00 +18°C° 0 mm 1 m/s 607 mmHg 78%
    06:00 +16°C° 0 mm 0 m/s 608 mmHg 76%
    07:00 +17°C° 0 mm 0 m/s 608 mmHg 74%
    08:00 +21°C° 0.1 mm 1 m/s 609 mmHg 65%
    09:00 +24°C° 0.1 mm 1 m/s 610 mmHg 57%
    10:00 +26°C° 0.1 mm 2 m/s 611 mmHg 48%
    11:00 +26°C° 0.3 mm 1 m/s 611 mmHg 47%
    12:00 +27°C° 0.3 mm 1 m/s 611 mmHg 45%
    13:00 +28°C° 0.3 mm 1 m/s 610 mmHg 43%
    14:00 +26°C° 0.1 mm 1 m/s 609 mmHg 48%
    15:00 +25°C° 0.1 mm 1 m/s 608 mmHg 53%
    16:00 +23°C° 0.1 mm 1 m/s 607 mmHg 58%
    17:00 +22°C° 0.1 mm 1 m/s 607 mmHg 62%
    18:00 +20°C° 0.1 mm 2 m/s 607 mmHg 66%
    19:00 +19°C° 0.1 mm 2 m/s 608 mmHg 70%
    20:00 +20°C° 0.1 mm 1 m/s 608 mmHg 74%
    21:00 +19°C° 0.1 mm 1 m/s 608 mmHg 78%
    22:00 +18°C° 0.1 mm 1 m/s 609 mmHg 82%
    23:00 +18°C° 0 mm 1 m/s 608 mmHg 84%

    26 Janvier, Samedi

    Heure Température Précipitation Vent Pression Humidité
    00:00 +16°C° 0 mm 1 m/s 608 mmHg 86%
    01:00 +15°C° 0 mm 0 m/s 608 mmHg 88%
    02:00 +15°C° 0.2 mm 0 m/s 608 mmHg 86%
    03:00 +16°C° 0.2 mm 0 m/s 608 mmHg 85%
    04:00 +16°C° 0.2 mm 0 m/s 608 mmHg 83%
    05:00 +16°C° 0.4 mm 0 m/s 608 mmHg 83%
    06:00 +16°C° 0.4 mm 0 m/s 609 mmHg 83%
    07:00 +16°C° 0.4 mm 0 m/s 609 mmHg 82%
    08:00 +19°C° 0.2 mm 0 m/s 610 mmHg 73%
    09:00 +23°C° 0.2 mm 1 m/s 611 mmHg 63%
    10:00 +25°C° 0.2 mm 1 m/s 612 mmHg 53%
    11:00 +26°C° 1.1 mm 1 m/s 612 mmHg 51%
    12:00 +27°C° 1.1 mm 1 m/s 611 mmHg 49%
    13:00 +28°C° 1.1 mm 1 m/s 611 mmHg 47%
    14:00 +26°C° 1.1 mm 1 m/s 610 mmHg 54%
    15:00 +24°C° 1.1 mm 1 m/s 609 mmHg 62%
    16:00 +21°C° 1.1 mm 2 m/s 608 mmHg 70%
    17:00 +20°C° 0.8 mm 2 m/s 608 mmHg 73%
    18:00 +19°C° 0.8 mm 2 m/s 608 mmHg 77%
    19:00 +19°C° 0.8 mm 2 m/s 608 mmHg 81%
    20:00 +19°C° 0.3 mm 1 m/s 608 mmHg 85%
    21:00 +18°C° 0.3 mm 1 m/s 609 mmHg 88%
    22:00 +16°C° 0.3 mm 1 m/s 609 mmHg 92%
    23:00 +16°C° 0 mm 1 m/s 609 mmHg 92%

    27 Janvier, Dimanche

    Heure Température Précipitation Vent Pression Humidité
    00:00 +16°C° 0 mm 1 m/s 608 mmHg 93%
    01:00 +16°C° 0 mm 1 m/s 608 mmHg 93%
    02:00 +16°C° 0.1 mm 1 m/s 608 mmHg 94%
    03:00 +15°C° 0.1 mm 1 m/s 607 mmHg 94%
    04:00 +15°C° 0.1 mm 1 m/s 607 mmHg 95%
    05:00 +14°C° 0 mm 0 m/s 608 mmHg 93%
    06:00 +15°C° 0 mm 0 m/s 608 mmHg 91%
    07:00 +15°C° 0 mm 0 m/s 609 mmHg 88%
    08:00 +20°C° 0 mm 1 m/s 610 mmHg 75%
    09:00 +23°C° 0 mm 1 m/s 611 mmHg 62%
    10:00 +26°C° 0 mm 1 m/s 612 mmHg 49%
    11:00 +27°C° 0.2 mm 1 m/s 612 mmHg 46%
    12:00 +28°C° 0.2 mm 1 m/s 611 mmHg 43%
    13:00 +29°C° 0.2 mm 1 m/s 611 mmHg 40%
    14:00 +27°C° 0.6 mm 2 m/s 610 mmHg 46%
    15:00 +26°C° 0.6 mm 2 m/s 609 mmHg 52%
    16:00 +24°C° 0.6 mm 2 m/s 608 mmHg 58%
    17:00 +23°C° 0.3 mm 2 m/s 608 mmHg 62%
    18:00 +21°C° 0.3 mm 2 m/s 608 mmHg 67%
    19:00 +19°C° 0.3 mm 2 m/s 608 mmHg 72%
    20:00 +19°C° 0.2 mm 1 m/s 608 mmHg 78%
    21:00 +18°C° 0.2 mm 1 m/s 608 mmHg 84%
    22:00 +16°C° 0.2 mm 1 m/s 608 mmHg 89%
    23:00 +16°C° 0.1 mm 1 m/s 608 mmHg 91%

    28 Janvier, Lundi

    Heure Température Précipitation Vent Pression Humidité
    00:00 +16°C° 0.1 mm 1 m/s 608 mmHg 92%
    01:00 +16°C° 0.1 mm 1 m/s 608 mmHg 93%
    02:00 +15°C° 0.2 mm 1 m/s 607 mmHg 93%
    03:00 +15°C° 0.2 mm 1 m/s 607 mmHg 94%
    04:00 +14°C° 0.2 mm 0 m/s 607 mmHg 94%
    05:00 +15°C° 0.2 mm 0 m/s 608 mmHg 90%
    06:00 +15°C° 0.2 mm 0 m/s 608 mmHg 87%
    07:00 +16°C° 0.2 mm 0 m/s 609 mmHg 83%
    08:00 +19°C° 0.1 mm 0 m/s 610 mmHg 71%
    09:00 +24°C° 0.1 mm 1 m/s 611 mmHg 59%
    10:00 +26°C° 0.1 mm 1 m/s 612 mmHg 46%
    11:00 +27°C° 0 mm 1 m/s 612 mmHg 43%
    12:00 +28°C° 0 mm 1 m/s 611 mmHg 40%
    13:00 +29°C° 0 mm 1 m/s 611 mmHg 37%
    14:00 +28°C° 0 mm 2 m/s 610 mmHg 43%
    15:00 +26°C° 0 mm 2 m/s 609 mmHg 48%
    16:00 +25°C° 0 mm 2 m/s 607 mmHg 53%
    17:00 +23°C° 0.1 mm 2 m/s 607 mmHg 57%
    18:00 +21°C° 0.1 mm 2 m/s 608 mmHg 61%
    19:00 +20°C° 0.1 mm 2 m/s 608 mmHg 65%
    20:00 +21°C° 0 mm 1 m/s 608 mmHg 68%
    21:00 +20°C° 0 mm 1 m/s 608 mmHg 72%
    22:00 +19°C° 0 mm 1 m/s 608 mmHg 76%
    23:00 +19°C° 0.5 mm 1 m/s 608 mmHg 79%
    Voir plus